This is the latest recevied weather packets stored in our database for station/object K5OBH. If no packets are shown the sender has not sent any weather packets the latest 10 day(s).
| Time | Temp. | Humidity | Pressure | Rain* | Wind** | Luminosity | Snow |
|---|---|---|---|---|---|---|---|
| 1777754495 | 22.78° C | 42% | 1018.9 hPa | 0 mm | - | 599 W/m² | - |
| 1777754192 | 23.33° C | 43% | 1019.2 hPa | 0 mm | - | 612 W/m² | - |
| 1777753890 | 23.89° C | 42% | 1019.3 hPa | 0 mm | - | 622 W/m² | - |
| 1777753585 | 23.33° C | 41% | 1019.2 hPa | 0 mm | - | 628 W/m² | - |
| 1777753283 | 23.33° C | 40% | 1019.5 hPa | 0 mm | - | 644 W/m² | - |
| 1777752979 | 23.33° C | 43% | 1019.3 hPa | 0 mm | - | 672 W/m² | - |
| 1777752676 | 23.33° C | 43% | 1019.3 hPa | 0 mm | - | 666 W/m² | - |
| 1777752372 | 23.89° C | 43% | 1019.3 hPa | 0 mm | - | 673 W/m² | - |
| 1777752070 | 22.78° C | 44% | 1019.5 hPa | 0 mm | - | 674 W/m² | - |
| 1777751768 | 22.78° C | 44% | 1019.4 hPa | 0 mm | - | 226 W/m² | - |
| 1777751463 | 22.22° C | 44% | 1019.5 hPa | 0 mm | - | 704 W/m² | - |
| 1777751160 | 22.22° C | 45% | 1019.2 hPa | 0 mm | - | 631 W/m² | - |
| 1777750856 | 22.78° C | 44% | 1019.7 hPa | 0 mm | - | 623 W/m² | - |
| 1777750554 | 23.33° C | 44% | 1019.6 hPa | 0 mm | - | 749 W/m² | - |
| 1777750250 | 22.78° C | 42% | 1019.7 hPa | 0 mm | - | 760 W/m² | - |
| 1777749946 | 22.22° C | 46% | 1019.4 hPa | 0 mm | - | 243 W/m² | - |
| 1777749644 | 22.78° C | 45% | 1019.7 hPa | 0 mm | - | 189 W/m² | - |
| 1777749340 | 22.22° C | 48% | 1019.7 hPa | 0 mm | - | 834 W/m² | - |
| 1777749038 | 22.22° C | 44% | 1019.7 hPa | 0 mm | - | 217 W/m² | - |
| 1777748735 | 22.22° C | 45% | 1019.7 hPa | 0 mm | - | 214 W/m² | - |
| 1777748432 | 22.78° C | 43% | 1019.8 hPa | 0 mm | - | 306 W/m² | - |
| 1777748127 | 22.78° C | 43% | 1019.8 hPa | 0 mm | - | 784 W/m² | - |
| 1777747824 | 21.67° C | 44% | 1019.7 hPa | 0 mm | - | 796 W/m² | - |
| 1777747520 | 21.67° C | 46% | 1019.9 hPa | 0 mm | - | 264 W/m² | - |
| 1777747216 | 21.67° C | 47% | 1020.2 hPa | 0 mm | - | 359 W/m² | - |
* Rain latest hour (hover to see other rain measurements)
** Current wind speed in m/s (hover to see current wind gust speed)